DEBMA ED75-EDHL

Flight info

Callsign DEBMA
Flight time N/A
Altitude 3000
Route ED75 EDHB EDXT EDHL
Aircraft C152/L-V/N

Departure

Time N/A
Airport ED75

Arrival

Time 2026-04-25 19:10
Airport Lübeck Blankensee Airport (EDHL)
Time Latitude Longitude Altitude Speed Heading
2026-04-25 18:37 54.45528 11.11288 31 ft 0 kts 285°
2026-04-25 18:39 54.45550 11.11152 33 ft 34 kts 286°
2026-04-25 18:39 54.45654 11.10696 228 ft 43 kts 311°
2026-04-25 18:39 54.45770 11.10276 543 ft 32 kts 290°
2026-04-25 18:39 54.45775 11.09916 856 ft 25 kts 287°
2026-04-25 18:40 54.45767 11.09715 992 ft 31 kts 291°
2026-04-25 18:40 54.45696 11.09104 1272 ft 58 kts 250°
2026-04-25 18:40 54.45182 11.09030 1515 ft 89 kts 172°
2026-04-25 18:40 54.44615 11.09584 1732 ft 96 kts 163°
2026-04-25 18:41 54.44040 11.10117 1988 ft 95 kts 161°
2026-04-25 18:41 54.43441 11.10574 2229 ft 90 kts 177°
2026-04-25 18:41 54.42834 11.10835 2451 ft 87 kts 193°
2026-04-25 18:41 54.42236 11.10977 2687 ft 89 kts 187°
2026-04-25 18:42 54.41599 11.11203 2831 ft 99 kts 182°
2026-04-25 18:42 54.41369 11.11289 2841 ft 102 kts 184°
2026-04-25 18:42 54.40168 11.11351 3028 ft 103 kts 202°
2026-04-25 18:42 54.39467 11.11242 3160 ft 103 kts 203°
2026-04-25 18:43 54.38732 11.11134 3222 ft 112 kts 200°
2026-04-25 18:43 54.37940 11.11034 3257 ft 120 kts 191°
2026-04-25 18:43 54.37068 11.11047 3110 ft 129 kts 193°
2026-04-25 18:43 54.36174 11.11048 2998 ft 124 kts 192°
2026-04-25 18:44 54.35316 11.11062 3006 ft 123 kts 194°
2026-04-25 18:44 54.34490 11.10914 3007 ft 118 kts 204°
2026-04-25 18:44 54.33686 11.10715 3013 ft 118 kts 204°
2026-04-25 18:44 54.32873 11.10514 3013 ft 118 kts 204°
2026-04-25 18:45 54.32059 11.10313 3016 ft 118 kts 204°
2026-04-25 18:45 54.31245 11.10113 3016 ft 118 kts 204°
2026-04-25 18:45 54.30430 11.09920 3016 ft 118 kts 203°
2026-04-25 18:45 54.29619 11.09726 3016 ft 118 kts 203°
2026-04-25 18:46 54.28808 11.09527 3016 ft 118 kts 204°
2026-04-25 18:46 54.27994 11.09320 3017 ft 118 kts 204°
2026-04-25 18:46 54.27177 11.09108 3018 ft 119 kts 204°
2026-04-25 18:46 54.26367 11.08896 3019 ft 119 kts 203°
2026-04-25 18:47 54.25543 11.08680 3016 ft 119 kts 204°
2026-04-25 18:47 54.24722 11.08471 3016 ft 119 kts 204°
2026-04-25 18:47 54.23903 11.08272 3009 ft 118 kts 204°
2026-04-25 18:47 54.23088 11.08084 3009 ft 118 kts 204°
2026-04-25 18:48 54.22285 11.07899 3007 ft 118 kts 204°
2026-04-25 18:48 54.21476 11.07713 3006 ft 117 kts 204°
2026-04-25 18:48 54.20671 11.07530 3006 ft 117 kts 203°
2026-04-25 18:48 54.19868 11.07343 3008 ft 116 kts 204°
2026-04-25 18:49 54.19063 11.07159 3011 ft 117 kts 204°
2026-04-25 18:49 54.18257 11.06975 3011 ft 117 kts 203°
2026-04-25 18:49 54.17449 11.06786 3012 ft 117 kts 203°
2026-04-25 18:49 54.16641 11.06582 3012 ft 117 kts 204°
2026-04-25 18:50 54.15833 11.06373 3014 ft 118 kts 204°
2026-04-25 18:50 54.15014 11.06159 3016 ft 120 kts 204°
2026-04-25 18:50 54.14182 11.05943 3019 ft 121 kts 204°
2026-04-25 18:50 54.13358 11.05730 3021 ft 121 kts 204°
2026-04-25 18:51 54.12520 11.05508 3013 ft 122 kts 203°
2026-04-25 18:51 54.12239 11.05431 3013 ft 122 kts 204°
2026-04-25 18:51 54.10846 11.05052 3014 ft 122 kts 204°
2026-04-25 18:51 54.10006 11.04834 3015 ft 122 kts 204°
2026-04-25 18:52 54.09167 11.04623 3018 ft 122 kts 203°
2026-04-25 18:52 54.08327 11.04401 3018 ft 122 kts 204°
2026-04-25 18:52 54.07486 11.04175 3019 ft 122 kts 204°
2026-04-25 18:52 54.06647 11.03950 3020 ft 122 kts 204°
2026-04-25 18:53 54.05808 11.03733 3021 ft 122 kts 204°
2026-04-25 18:53 54.04977 11.03520 3022 ft 122 kts 204°
2026-04-25 18:53 54.04136 11.03300 3028 ft 122 kts 203°
2026-04-25 18:53 54.03294 11.03070 3028 ft 123 kts 204°
2026-04-25 18:54 54.01609 11.02605 3028 ft 123 kts 204°
2026-04-25 18:54 54.01049 11.02454 3028 ft 123 kts 204°
2026-04-25 18:54 54.00205 11.02230 3028 ft 122 kts 204°
2026-04-25 18:55 53.99498 11.01717 3026 ft 98 kts 249°
2026-04-25 18:55 53.99077 11.00823 3021 ft 98 kts 249°
2026-04-25 18:55 53.98635 10.99936 3023 ft 98 kts 250°
2026-04-25 18:55 53.98195 10.99049 3030 ft 98 kts 250°
2026-04-25 18:56 53.97754 10.98161 3013 ft 99 kts 249°
2026-04-25 18:56 53.97312 10.97271 3014 ft 98 kts 249°
2026-04-25 18:56 53.96872 10.96384 3015 ft 98 kts 249°
2026-04-25 18:56 53.96437 10.95506 3014 ft 98 kts 249°
2026-04-25 18:57 53.96001 10.94628 3010 ft 97 kts 249°
2026-04-25 18:57 53.95566 10.93760 3009 ft 96 kts 249°
2026-04-25 18:57 53.95133 10.92893 3010 ft 96 kts 251°
2026-04-25 18:57 53.94878 10.92298 3011 ft 93 kts 255°
2026-04-25 18:58 53.94377 10.91093 3014 ft 94 kts 255°
2026-04-25 18:58 53.93618 10.89263 3013 ft 90 kts 255°
2026-04-25 18:58 53.93267 10.88511 2998 ft 76 kts 254°
2026-04-25 18:59 53.93363 10.88160 3005 ft 85 kts 53°
2026-04-25 18:59 53.93485 10.89903 3003 ft 90 kts 60°
2026-04-25 19:00 53.93613 10.91619 3003 ft 84 kts 60°
2026-04-25 19:01 53.93907 10.95315 3006 ft 86 kts 60°
2026-04-25 19:01 53.93981 10.96329 3008 ft 84 kts 51°
2026-04-25 19:01 53.94253 10.96631 3016 ft 40 kts 308°
2026-04-25 19:01 53.94009 10.96103 3019 ft 75 kts 242°
2026-04-25 19:02 53.93150 10.94811 3022 ft 95 kts 245°
2026-04-25 19:02 53.92673 10.93995 3021 ft 99 kts 245°
2026-04-25 19:02 53.92190 10.93161 3019 ft 99 kts 245°
2026-04-25 19:03 53.91548 10.92053 3018 ft 100 kts 245°
2026-04-25 19:03 53.90741 10.90652 3018 ft 100 kts 245°
2026-04-25 19:03 53.90285 10.89790 3010 ft 95 kts 253°
2026-04-25 19:04 53.89821 10.87901 3016 ft 84 kts 269°
2026-04-25 19:04 53.89655 10.86970 3045 ft 82 kts 272°
2026-04-25 19:05 53.89444 10.85053 3001 ft 80 kts 280°
2026-04-25 19:05 53.89375 10.83197 3063 ft 76 kts 286°
2026-04-25 19:05 53.89376 10.82279 3066 ft 80 kts 282°
2026-04-25 19:06 53.89369 10.81322 2987 ft 81 kts 287°
2026-04-25 19:06 53.89418 10.79500 3008 ft 78 kts 288°
2026-04-25 19:06 53.89363 10.78543 2933 ft 86 kts 271°
2026-04-25 19:07 53.88993 10.76449 1838 ft 92 kts 255°
2026-04-25 19:07 53.88546 10.75647 1774 ft 100 kts 233°
2026-04-25 19:08 53.87028 10.75810 1615 ft 131 kts 163°
2026-04-25 19:08 53.86207 10.76417 1568 ft 126 kts 167°
2026-04-25 19:09 53.83634 10.77376 1378 ft 134 kts 181°
2026-04-25 19:09 53.83025 10.77475 1305 ft 129 kts 192°
2026-04-25 19:09 53.81608 10.76654 855 ft 67 kts 239°
2026-04-25 19:10 53.81335 10.76168 689 ft 50 kts 252°
2026-04-25 19:10 53.81171 10.75688 595 ft 48 kts 260°
2026-04-25 19:10 53.81083 10.75196 531 ft 45 kts 271°
2026-04-25 19:10 53.81007 10.74636 453 ft 53 kts 268°
2026-04-25 19:11 53.80917 10.74005 368 ft 56 kts 264°
2026-04-25 19:11 53.80803 10.73376 220 ft 56 kts 262°
2026-04-25 19:11 53.80691 10.72815 72 ft 37 kts 270°
2026-04-25 19:11 53.80649 10.72562 54 ft 16 kts 263°
2026-04-25 19:12 53.80603 10.72285 55 ft 40 kts 253°
2026-04-25 19:12 53.80519 10.71878 143 ft 37 kts 267°
2026-04-25 19:12 53.80428 10.71508 282 ft 38 kts 264°
2026-04-25 19:12 53.80343 10.71046 512 ft 44 kts 267°
2026-04-25 19:13 53.80296 10.70556 758 ft 45 kts 270°
2026-04-25 19:13 53.79924 10.70294 882 ft 90 kts 183°
2026-04-25 19:13 53.79306 10.70876 967 ft 116 kts 132°
2026-04-25 19:13 53.79128 10.72160 1098 ft 111 kts 67°
2026-04-25 19:14 53.79294 10.73471 1177 ft 116 kts 64°
2026-04-25 19:14 53.79361 10.73905 1185 ft 119 kts 63°
2026-04-25 19:14 53.79879 10.75750 1133 ft 80 kts 14°
2026-04-25 19:14 53.80316 10.75854 1072 ft 60 kts 334°
2026-04-25 19:15 53.80702 10.75548 887 ft 62 kts 318°
2026-04-25 19:15 53.80908 10.74986 727 ft 45 kts 288°
2026-04-25 19:15 53.80926 10.74474 595 ft 42 kts 279°
2026-04-25 19:15 53.80897 10.73956 393 ft 48 kts 270°
2026-04-25 19:16 53.80810 10.73416 214 ft 46 kts 265°
2026-04-25 19:16 53.80725 10.72969 64 ft 34 kts 265°
2026-04-25 19:16 53.80677 10.72674 54 ft 21 kts 255°
2026-04-25 19:16 53.80638 10.72454 54 ft 20 kts 251°
2026-04-25 19:17 53.80588 10.72188 54 ft 25 kts 253°
2026-04-25 19:17 53.80576 10.71977 53 ft 15 kts 286°
2026-04-25 19:17 53.80604 10.71854 56 ft 8 kts 294°
2026-04-25 19:17 53.80611 10.71825 54 ft 0 kts 291°
2026-04-25 19:18 53.80640 10.71715 56 ft 19 kts 295°
2026-04-25 19:18 53.80656 10.71536 56 ft 13 kts 255°
2026-04-25 19:18 53.80635 10.71411 56 ft 9 kts 250°
2026-04-25 19:19 53.80616 10.71317 53 ft 8 kts 251°
2026-04-25 19:19 53.80583 10.71139 57 ft 28 kts 252°
2026-04-25 19:19 53.80523 10.70828 53 ft 25 kts 253°
2026-04-25 19:19 53.80507 10.70738 53 ft 23 kts 253°
2026-04-25 19:20 53.80471 10.70414 52 ft 11 kts 322°
2026-04-25 19:20 53.80522 10.70354 52 ft 7 kts 322°
2026-04-25 19:20 53.80577 10.70361 53 ft 16 kts 44°
2026-04-25 19:20 53.80577 10.70464 52 ft 7 kts 139°
2026-04-25 19:21 53.80588 10.70499 52 ft 4 kts
2026-04-25 19:21 53.80597 10.70490 52 ft 0 kts 279°